Terug naar catalogus

FENGYUN 1C DEB

ActiefSSO
NORAD 29940·DEBRIS·🇨🇳 China

Gelanceerd May 10, 1999 vanaf Taiyuan Satellite Launch Center

Loading…

Volgende Passages (komende 24 uur)

TLE

VersSource: Space-Track

Epoch: Sep 14, 2026, 23:33 UTC

1 29940U 99025JN  26257.98152140  .00000767  00000-0  37454-3 0  9997
2 29940  98.6194 265.1871 0074203  24.1420   5.3418 14.19410020 13830

Volg FENGYUN 1C DEB in realtime met AllMySat

Download on the App Store